Regional Weather Roundup
Issued by NWS

Home | Current Version | Previous Version | Graphics & Text | Print | Product List | Glossary On
Versions: 1 2 3 4 5 6 7 8 9 10 11 12 13 14 15 16 17 18 19 20 21 22 23 24 25 26 27 28 29 30 31 32 33 34 35 36 37 38 39 40 41 42 43 44 45 46 47 48 49 50
000
ASUS45 KBOI 181810
RWRID
WEATHER ROUNDUP FOR IDAHO
NATIONAL WEATHER SERVICE BOISE ID
1100 AM MST THU DEC 18 2014

NOTE: "FAIR" INDICATES FEW OR NO CLOUDS BELOW 12000 FEET
WITH NO SIGNIFICANT WEATHER AND/OR OBSTRUCTIONS TO VISIBILITY

IDZ012-014-181900-
SOUTHWEST IDAHO


CITY           SKY/WX    TMP DP  RH WIND       PRES   REMARKS
BOISE          CLOUDY    42  32  67 SE8       30.11R
CALDWELL       CLOUDY    39  28  65 E8        30.13S WCI  34
MOUNTAIN HOME  CLOUDY    39  28  65 E17       30.12S WCI  30
$$

IDZ016-017-181900-
SOUTHCENTRAL IDAHO


CITY           SKY/WX    TMP DP  RH WIND       PRES   REMARKS
BURLEY         MOSUNNY   36  29  75 CALM      30.13R
JEROME         MOSUNNY   34  28  79 NE8       30.14R WCI  27
TWIN FALLS     SUNNY     43  27  53 S12       30.13R
$$

IDZ019>023-181900-
SOUTHEAST IDAHO


CITY           SKY/WX    TMP DP  RH WIND       PRES   REMARKS
IDAHO FALLS    CLOUDY    28  25  88 N5        30.14R WCI  23
POCATELLO      MOSUNNY   31  29  92 CALM      30.15R
REXBURG        CLOUDY    30  29  96 VRB3      30.13S
$$

IDZ006-010-011-018-031-032-181900-
CENTRAL IDAHO MOUNTAINS


CITY           SKY/WX    TMP DP  RH WIND       PRES   REMARKS
MCCALL         LGT SNOW  32  30  92 SE12      30.04R FOG     WCI  23
HAILEY         CLOUDY    30  23  74 NW5       30.14R WCI  25
STANLEY          N/A     22  17  81 N5        30.08R WCI  16
SALMON         CLOUDY    25  16  68 CALM      30.13S
CHALLIS        CLOUDY    23  18  81 CALM      30.12R
$$

IDZ002-004-006-007-026-181900-
NORTHERN IDAHO


CITY           SKY/WX    TMP DP  RH WIND       PRES   REMARKS
LEWISTON       PTSUNNY   41  38  89 CALM      30.04R
LOWELL           N/A     37  35  92 CALM      30.11R
COEUR D`ALENE  CLOUDY    39  36  87 S6        30.00R WCI  35
MULLAN PASS    SNOW      29  27  92 VRB5      29.94R VSB 1/2 WCI  24
$$



USA.gov is the U.S. government's official web portal to all federal, state and local government web resources and services.